Location: WWIN Observatory
(34.8953°N, 91.9583°W)
Time: 16:30:16
(UTC-05:00)

Envisat - Visible Passes

Search period start: 17 October 2019 00:00
Search period end: 27 October 2019 00:00
Orbit: 764 x 766 km, 98.1° (Epoch: 17 October)

Date Brightness Start Highest point End Pass type
(mag) Time Alt. Az. Time Alt. Az. Time Alt. Az.
17 Oct 3.0 19:20:25 10° SSE 19:25:29 86° WSW 19:30:36 10° NNW visible
18 Oct 5.6 20:24:21 10° SW 20:27:58 20° W 20:31:36 10° NW visible
19 Oct 4.1 19:46:09 10° S 19:51:01 46° W 19:55:54 10° NNW visible
20 Oct 2.9 19:09:11 10° SSE 19:14:14 74° ENE 19:19:19 10° N visible
21 Oct 5.2 20:12:29 10° SSW 20:16:37 25° W 20:20:47 10° NW visible
22 Oct 6.4 06:46:51 10° ENE 06:49:23 14° E 06:51:56 10° ESE visible
22 Oct 3.6 19:34:43 10° S 19:39:43 60° W 19:44:45 10° NNW visible
23 Oct 3.1 18:58:03 10° SSE 19:03:00 57° ENE 19:07:59 10° N visible
23 Oct 6.1 20:39:53 10° WSW 20:42:20 13° W 20:44:47 10° WNW visible
24 Oct 4.8 20:00:47 10° SSW 20:05:18 32° W 20:09:50 10° NW visible
25 Oct 6.7 06:37:27 10° E 06:38:01 10° E 06:38:35 10° E visible
25 Oct 3.1 19:23:23 10° S 19:28:27 78° WSW 19:33:33 10° NNW visible
26 Oct 3.3 18:47:00 10° SE 18:51:47 44° ENE 18:56:36 10° N visible
26 Oct 5.7 20:27:37 10° SW 20:30:58 18° W 20:34:20 10° NW visible
